SWA1388 KDEN-KSNA

Flight info

Callsign SWA1388
Flight time 1h 48m
Altitude 38000
Route BAYLR6 TEHRU TOADD Q78 MARUE DSNEE6
Aircraft B737/M-SDE2E3GIJ4RWZ/LB1D1

Departure

Time 2026-05-07 03:23
Airport Denver International Airport (KDEN)

Arrival

Time 2026-05-07 05:11
Airport John Wayne Orange County International Airport (KSNA)
Time Latitude Longitude Altitude Speed Heading
2026-05-07 02:48 39.86348 -104.66696 5376 ft 0 kts 180°
2026-05-07 03:12 39.86369 -104.66696 5376 ft 4 kts 180°
2026-05-07 03:12 39.86390 -104.66695 5373 ft 4 kts 179°
2026-05-07 03:12 39.86415 -104.66696 5373 ft 2 kts 180°
2026-05-07 03:12 39.86417 -104.66696 5373 ft 0 kts 180°
2026-05-07 03:15 39.86413 -104.66696 5373 ft 1 kts 172°
2026-05-07 03:15 39.86411 -104.66686 5373 ft 2 kts 100°
2026-05-07 03:15 39.86411 -104.66667 5373 ft 3 kts 91°
2026-05-07 03:15 39.86411 -104.66638 5372 ft 4 kts 86°
2026-05-07 03:16 39.86412 -104.66601 5374 ft 5 kts 95°
2026-05-07 03:16 39.86409 -104.66557 5374 ft 5 kts 94°
2026-05-07 03:16 39.86421 -104.66520 5375 ft 5 kts 32°
2026-05-07 03:16 39.86456 -104.66509 5375 ft 6 kts
2026-05-07 03:17 39.86495 -104.66494 5376 ft 6 kts 44°
2026-05-07 03:17 39.86503 -104.66438 5378 ft 7 kts 91°
2026-05-07 03:17 39.86502 -104.66367 5376 ft 9 kts 89°
2026-05-07 03:17 39.86501 -104.66285 5378 ft 9 kts 92°
2026-05-07 03:18 39.86499 -104.66206 5379 ft 8 kts 89°
2026-05-07 03:18 39.86499 -104.66161 5382 ft 3 kts 91°
2026-05-07 03:18 39.86498 -104.66134 5382 ft 5 kts 94°
2026-05-07 03:18 39.86496 -104.66061 5378 ft 13 kts 90°
2026-05-07 03:19 39.86496 -104.65842 5374 ft 27 kts 90°
2026-05-07 03:19 39.86490 -104.65603 5370 ft 26 kts 89°
2026-05-07 03:19 39.86495 -104.65375 5365 ft 24 kts 91°
2026-05-07 03:19 39.86493 -104.65164 5361 ft 23 kts 90°
2026-05-07 03:20 39.86493 -104.64960 5357 ft 22 kts 90°
2026-05-07 03:20 39.86490 -104.64763 5351 ft 22 kts 90°
2026-05-07 03:20 39.86490 -104.64566 5348 ft 21 kts 91°
2026-05-07 03:20 39.86487 -104.64376 5344 ft 21 kts 91°
2026-05-07 03:21 39.86483 -104.64192 5346 ft 16 kts 94°
2026-05-07 03:21 39.86453 -104.64131 5344 ft 1 kts 176°
2026-05-07 03:22 39.86436 -104.64130 5344 ft 9 kts 179°
2026-05-07 03:22 39.86171 -104.64132 5349 ft 75 kts 180°
2026-05-07 03:22 39.85420 -104.64144 5354 ft 138 kts 180°
2026-05-07 03:22 39.84335 -104.64146 5719 ft 161 kts 180°
2026-05-07 03:23 39.83212 -104.64257 6663 ft 161 kts 198°
2026-05-07 03:23 39.82220 -104.64891 7402 ft 160 kts 220°
2026-05-07 03:23 39.81398 -104.65955 7936 ft 175 kts 235°
2026-05-07 03:23 39.80807 -104.67333 8617 ft 174 kts 257°
2026-05-07 03:24 39.80639 -104.68993 8951 ft 200 kts 268°
2026-05-07 03:24 39.80511 -104.70906 9305 ft 221 kts 268°
2026-05-07 03:24 39.80361 -104.72944 9900 ft 233 kts 268°
2026-05-07 03:24 39.80122 -104.75084 10477 ft 249 kts 260°
2026-05-07 03:25 39.79556 -104.77363 10808 ft 277 kts 254°
2026-05-07 03:25 39.78850 -104.79745 11564 ft 286 kts 253°
2026-05-07 03:25 39.78117 -104.82172 12407 ft 291 kts 254°
2026-05-07 03:25 39.77377 -104.84648 13288 ft 296 kts 255°
2026-05-07 03:26 39.76636 -104.87175 14136 ft 302 kts 255°
2026-05-07 03:26 39.75891 -104.89753 14941 ft 307 kts 255°
2026-05-07 03:26 39.75138 -104.92376 15770 ft 313 kts 256°
2026-05-07 03:26 39.74361 -104.95119 16136 ft 336 kts 255°
2026-05-07 03:27 39.73529 -104.98082 16336 ft 362 kts 255°
2026-05-07 03:27 39.72645 -105.01222 16814 ft 377 kts 255°
2026-05-07 03:27 39.71734 -105.04443 17569 ft 383 kts 255°
2026-05-07 03:27 39.70807 -105.07702 18377 ft 387 kts 255°
2026-05-07 03:28 39.69870 -105.11000 19048 ft 392 kts 255°
2026-05-07 03:28 39.68923 -105.14331 19728 ft 396 kts 255°
2026-05-07 03:28 39.67960 -105.17716 20417 ft 401 kts 255°
2026-05-07 03:28 39.66990 -105.21129 21097 ft 405 kts 255°
2026-05-07 03:29 39.66009 -105.24576 21742 ft 409 kts 255°
2026-05-07 03:29 39.65014 -105.28072 22396 ft 414 kts 255°
2026-05-07 03:29 39.64009 -105.31598 23035 ft 420 kts 255°
2026-05-07 03:29 39.62992 -105.35164 23676 ft 424 kts 255°
2026-05-07 03:30 39.61959 -105.38779 24198 ft 429 kts 255°
2026-05-07 03:30 39.60916 -105.42419 24752 ft 432 kts 255°
2026-05-07 03:30 39.59866 -105.46081 25314 ft 435 kts 255°
2026-05-07 03:30 39.58806 -105.49772 25840 ft 438 kts 255°
2026-05-07 03:31 39.57736 -105.53493 26348 ft 442 kts 255°
2026-05-07 03:31 39.56659 -105.57240 26856 ft 445 kts 255°
2026-05-07 03:31 39.55570 -105.61021 27354 ft 449 kts 255°
2026-05-07 03:31 39.54484 -105.64830 27841 ft 452 kts 255°
2026-05-07 03:32 39.53414 -105.68680 28312 ft 455 kts 256°
2026-05-07 03:32 39.52349 -105.72554 28738 ft 458 kts 256°
2026-05-07 03:32 39.51277 -105.76450 29210 ft 460 kts 256°
2026-05-07 03:32 39.50198 -105.80365 29628 ft 464 kts 256°
2026-05-07 03:33 39.49104 -105.84317 30022 ft 468 kts 256°
2026-05-07 03:33 39.48001 -105.88286 30391 ft 470 kts 255°
2026-05-07 03:33 39.46887 -105.92281 30714 ft 473 kts 256°
2026-05-07 03:33 39.45766 -105.96290 31076 ft 475 kts 256°
2026-05-07 03:34 39.44639 -106.00311 31486 ft 475 kts 255°
2026-05-07 03:34 39.43514 -106.04318 31996 ft 472 kts 256°
2026-05-07 03:34 39.42395 -106.08308 32302 ft 474 kts 256°
2026-05-07 03:35 39.40136 -106.16345 32324 ft 474 kts 255°
2026-05-07 03:35 39.37887 -106.24319 32336 ft 471 kts 255°
2026-05-07 03:36 39.35644 -106.32262 32338 ft 470 kts 255°
2026-05-07 03:36 39.33401 -106.40185 32343 ft 469 kts 255°
2026-05-07 03:37 39.31153 -106.48108 32335 ft 470 kts 255°
2026-05-07 03:37 39.28947 -106.55854 32312 ft 470 kts 255°
2026-05-07 03:38 39.26681 -106.63792 32768 ft 474 kts 255°
2026-05-07 03:38 39.25541 -106.67769 33366 ft 470 kts 255°
2026-05-07 03:38 39.24297 -106.71662 33933 ft 470 kts 249°
2026-05-07 03:38 39.22632 -106.75313 34360 ft 476 kts 240°
2026-05-07 03:39 39.20681 -106.78774 34695 ft 477 kts 238°
2026-05-07 03:39 39.18684 -106.82188 35028 ft 476 kts 238°
2026-05-07 03:39 39.16680 -106.85582 35378 ft 475 kts 238°
2026-05-07 03:39 39.14684 -106.88969 35760 ft 473 kts 238°
2026-05-07 03:40 39.12707 -106.92346 36103 ft 471 kts 238°
2026-05-07 03:40 39.10750 -106.95713 36444 ft 468 kts 238°
2026-05-07 03:40 39.08807 -106.99070 36685 ft 467 kts 238°
2026-05-07 03:40 39.06862 -107.02443 36889 ft 469 kts 238°
2026-05-07 03:41 39.04913 -107.05825 37141 ft 469 kts 238°
2026-05-07 03:41 39.02970 -107.09193 37454 ft 467 kts 238°
2026-05-07 03:41 39.01037 -107.12538 37763 ft 466 kts 238°
2026-05-07 03:41 38.99106 -107.15873 38128 ft 463 kts 238°
2026-05-07 03:42 38.97177 -107.19204 38106 ft 467 kts 238°
2026-05-07 03:42 38.93326 -107.25846 38136 ft 466 kts 238°
2026-05-07 03:43 38.89460 -107.32498 38146 ft 464 kts 238°
2026-05-07 03:43 38.85602 -107.39112 38140 ft 462 kts 238°
2026-05-07 03:44 38.81747 -107.45714 38139 ft 462 kts 238°
2026-05-07 03:44 38.77891 -107.52307 38121 ft 461 kts 238°
2026-05-07 03:45 38.74058 -107.58849 38147 ft 459 kts 238°
2026-05-07 03:45 38.70213 -107.65393 38175 ft 460 kts 237°
2026-05-07 03:46 38.66357 -107.71944 38187 ft 461 kts 237°
2026-05-07 03:46 38.62483 -107.78512 38221 ft 463 kts 237°
2026-05-07 03:47 38.58599 -107.85085 38231 ft 464 kts 237°
2026-05-07 03:47 38.54701 -107.91665 38246 ft 464 kts 237°
2026-05-07 03:48 38.50793 -107.98249 38234 ft 465 kts 237°
2026-05-07 03:48 38.46886 -108.04817 38226 ft 464 kts 237°
2026-05-07 03:49 38.42978 -108.11377 38202 ft 464 kts 237°
2026-05-07 03:49 38.39071 -108.17917 38193 ft 463 kts 237°
2026-05-07 03:50 38.35168 -108.24443 38183 ft 463 kts 237°
2026-05-07 03:50 38.31926 -108.29853 38165 ft 462 kts 237°
2026-05-07 03:51 38.28021 -108.36357 38160 ft 462 kts 237°
2026-05-07 03:51 38.24113 -108.42853 38156 ft 462 kts 236°
2026-05-07 03:52 38.20205 -108.49338 38152 ft 462 kts 236°
2026-05-07 03:52 38.16291 -108.55815 38150 ft 462 kts 236°
2026-05-07 03:53 38.12366 -108.62299 38137 ft 463 kts 236°
2026-05-07 03:53 38.08461 -108.68741 38143 ft 463 kts 236°
2026-05-07 03:54 38.04522 -108.75222 38140 ft 464 kts 236°
2026-05-07 03:54 38.00571 -108.81709 38137 ft 465 kts 236°
2026-05-07 03:55 37.96618 -108.88189 38135 ft 465 kts 236°
2026-05-07 03:55 37.92653 -108.94676 38131 ft 466 kts 236°
2026-05-07 03:56 37.88681 -109.01161 38145 ft 465 kts 236°
2026-05-07 03:56 37.84709 -109.07632 38139 ft 465 kts 236°
2026-05-07 03:57 37.80729 -109.14105 38139 ft 466 kts 236°
2026-05-07 03:57 37.76748 -109.20568 38155 ft 466 kts 236°
2026-05-07 03:58 37.72763 -109.27023 38175 ft 466 kts 236°
2026-05-07 03:58 37.68770 -109.33477 38199 ft 466 kts 235°
2026-05-07 03:59 37.64768 -109.39935 38224 ft 467 kts 235°
2026-05-07 03:59 37.60759 -109.46392 38229 ft 467 kts 235°
2026-05-07 04:00 37.56751 -109.52835 38228 ft 467 kts 235°
2026-05-07 04:00 37.52731 -109.59284 38221 ft 468 kts 235°
2026-05-07 04:01 37.48702 -109.65735 38180 ft 469 kts 235°
2026-05-07 04:01 37.44667 -109.72181 38150 ft 469 kts 235°
2026-05-07 04:02 37.40626 -109.78623 38120 ft 469 kts 235°
2026-05-07 04:02 37.36581 -109.85062 38078 ft 469 kts 235°
2026-05-07 04:03 37.32531 -109.91496 38074 ft 469 kts 234°
2026-05-07 04:03 37.28480 -109.97921 38068 ft 469 kts 234°
2026-05-07 04:04 37.24426 -110.04336 38058 ft 469 kts 234°
2026-05-07 04:04 37.20367 -110.10747 38053 ft 469 kts 234°
2026-05-07 04:05 37.16311 -110.17140 38056 ft 468 kts 234°
2026-05-07 04:05 37.12261 -110.23513 38044 ft 467 kts 234°
2026-05-07 04:06 37.08214 -110.29867 38049 ft 466 kts 234°
2026-05-07 04:06 37.04195 -110.36165 38050 ft 465 kts 234°
2026-05-07 04:07 37.00150 -110.42491 38044 ft 465 kts 234°
2026-05-07 04:07 36.96103 -110.48811 38036 ft 465 kts 234°
2026-05-07 04:08 36.92053 -110.55125 38050 ft 465 kts 234°
2026-05-07 04:08 36.88005 -110.61428 38032 ft 465 kts 233°
2026-05-07 04:09 36.83949 -110.67724 38037 ft 465 kts 233°
2026-05-07 04:09 36.79883 -110.74026 38016 ft 466 kts 233°
2026-05-07 04:10 36.75836 -110.80284 38022 ft 467 kts 233°
2026-05-07 04:10 36.71756 -110.86587 38012 ft 467 kts 233°
2026-05-07 04:11 36.67670 -110.92882 38015 ft 467 kts 233°
2026-05-07 04:11 36.63579 -110.99174 37996 ft 467 kts 233°
2026-05-07 04:12 36.59488 -111.05454 38009 ft 467 kts 233°
2026-05-07 04:12 36.55396 -111.11724 37999 ft 467 kts 233°
2026-05-07 04:13 36.51304 -111.17984 38013 ft 466 kts 233°
2026-05-07 04:13 36.47209 -111.24238 38001 ft 466 kts 232°
2026-05-07 04:14 36.43114 -111.30480 38009 ft 466 kts 232°
2026-05-07 04:14 36.39014 -111.36717 38012 ft 466 kts 232°
2026-05-07 04:15 36.34915 -111.42943 38011 ft 466 kts 232°
2026-05-07 04:15 36.30845 -111.49212 37992 ft 465 kts 237°
2026-05-07 04:16 36.27921 -111.56293 38010 ft 460 kts 252°
2026-05-07 04:16 36.25800 -111.63772 38008 ft 460 kts 253°
2026-05-07 04:17 36.23697 -111.71263 38018 ft 460 kts 252°
2026-05-07 04:17 36.21550 -111.78738 38026 ft 459 kts 252°
2026-05-07 04:18 36.19383 -111.86171 38051 ft 460 kts 252°
2026-05-07 04:18 36.17208 -111.93603 38099 ft 460 kts 252°
2026-05-07 04:19 36.15036 -112.01005 38137 ft 461 kts 252°
2026-05-07 04:19 36.12838 -112.08473 38153 ft 462 kts 252°
2026-05-07 04:20 36.10636 -112.15941 38170 ft 462 kts 252°
2026-05-07 04:20 36.08437 -112.23389 38181 ft 461 kts 251°
2026-05-07 04:21 36.05123 -112.34548 38149 ft 461 kts 251°
2026-05-07 04:21 36.02908 -112.41988 38129 ft 461 kts 251°
2026-05-07 04:22 36.00692 -112.49412 38081 ft 460 kts 251°
2026-05-07 04:22 35.98473 -112.56831 38041 ft 460 kts 251°
2026-05-07 04:23 35.96249 -112.64244 38018 ft 460 kts 251°
2026-05-07 04:23 35.94021 -112.71650 38033 ft 460 kts 251°
2026-05-07 04:24 35.91788 -112.79057 38016 ft 460 kts 251°
2026-05-07 04:24 35.89553 -112.86446 38026 ft 460 kts 251°
2026-05-07 04:25 35.87311 -112.93842 38012 ft 460 kts 251°
2026-05-07 04:25 35.85082 -113.01179 38021 ft 460 kts 251°
2026-05-07 04:26 35.82827 -113.08579 37998 ft 461 kts 251°
2026-05-07 04:26 35.80571 -113.15968 38011 ft 461 kts 251°
2026-05-07 04:27 35.78303 -113.23369 37991 ft 461 kts 251°
2026-05-07 04:27 35.76031 -113.30775 37991 ft 462 kts 250°
2026-05-07 04:28 35.73759 -113.38155 37978 ft 462 kts 251°
2026-05-07 04:28 35.71460 -113.45539 37979 ft 462 kts 250°
2026-05-07 04:29 35.69151 -113.52868 37962 ft 462 kts 250°
2026-05-07 04:29 35.66822 -113.60246 37951 ft 463 kts 250°
2026-05-07 04:30 35.64492 -113.67622 37948 ft 463 kts 250°
2026-05-07 04:30 35.62154 -113.75011 37944 ft 463 kts 250°
2026-05-07 04:31 35.59816 -113.82381 37944 ft 463 kts 250°
2026-05-07 04:31 35.57472 -113.89747 37963 ft 462 kts 250°
2026-05-07 04:32 35.55128 -113.97100 37960 ft 462 kts 250°
2026-05-07 04:32 35.52783 -114.04437 37978 ft 461 kts 250°
2026-05-07 04:33 35.50433 -114.11768 37964 ft 461 kts 250°
2026-05-07 04:33 35.48476 -114.17862 37972 ft 461 kts 250°
2026-05-07 04:34 35.46117 -114.25194 37943 ft 462 kts 250°
2026-05-07 04:34 35.43755 -114.32512 37941 ft 462 kts 250°
2026-05-07 04:35 35.41389 -114.39834 37942 ft 461 kts 250°
2026-05-07 04:35 35.39016 -114.47149 37943 ft 462 kts 250°
2026-05-07 04:36 35.36637 -114.54468 37943 ft 462 kts 250°
2026-05-07 04:36 35.34271 -114.61726 37951 ft 462 kts 249°
2026-05-07 04:37 35.31882 -114.69040 37939 ft 462 kts 249°
2026-05-07 04:37 35.29491 -114.76346 37956 ft 462 kts 249°
2026-05-07 04:38 35.27092 -114.83659 37949 ft 463 kts 249°
2026-05-07 04:38 35.24770 -114.91005 37970 ft 462 kts 253°
2026-05-07 04:39 35.22878 -114.98508 37980 ft 461 kts 255°
2026-05-07 04:39 35.21064 -115.05972 37999 ft 461 kts 255°
2026-05-07 04:40 35.19189 -115.13428 37995 ft 461 kts 254°
2026-05-07 04:40 35.17273 -115.20910 38021 ft 460 kts 254°
2026-05-07 04:41 35.15358 -115.28368 38014 ft 460 kts 254°
2026-05-07 04:41 35.13439 -115.35832 38045 ft 460 kts 254°
2026-05-07 04:42 35.11520 -115.43278 38024 ft 460 kts 254°
2026-05-07 04:42 35.09598 -115.50723 38048 ft 460 kts 254°
2026-05-07 04:43 35.07672 -115.58166 38027 ft 460 kts 254°
2026-05-07 04:43 35.05737 -115.65628 38039 ft 461 kts 254°
2026-05-07 04:44 35.03797 -115.73084 38015 ft 462 kts 254°
2026-05-07 04:44 35.01858 -115.80560 38019 ft 462 kts 254°
2026-05-07 04:45 34.99951 -115.88058 38003 ft 463 kts 254°
2026-05-07 04:45 34.98041 -115.95569 38006 ft 464 kts 254°
2026-05-07 04:46 34.96108 -116.03130 37229 ft 473 kts 254°
2026-05-07 04:46 34.95130 -116.06943 36593 ft 471 kts 254°
2026-05-07 04:46 34.94161 -116.10710 35889 ft 471 kts 255°
2026-05-07 04:47 34.93175 -116.14541 35072 ft 475 kts 255°
2026-05-07 04:47 34.92181 -116.18402 34229 ft 480 kts 255°
2026-05-07 04:47 34.91176 -116.22302 33250 ft 486 kts 255°
2026-05-07 04:47 34.90154 -116.26259 32273 ft 492 kts 255°
2026-05-07 04:48 34.89120 -116.30237 31558 ft 492 kts 253°
2026-05-07 04:48 34.87678 -116.34029 30821 ft 496 kts 237°
2026-05-07 04:48 34.85497 -116.37261 30137 ft 495 kts 225°
2026-05-07 04:48 34.83097 -116.40257 29386 ft 493 kts 224°
2026-05-07 04:49 34.80685 -116.43188 28699 ft 488 kts 224°
2026-05-07 04:49 34.78304 -116.46109 28053 ft 483 kts 225°
2026-05-07 04:49 34.75970 -116.49025 27401 ft 478 kts 225°
2026-05-07 04:49 34.73683 -116.51926 26778 ft 473 kts 225°
2026-05-07 04:50 34.71418 -116.54810 26140 ft 468 kts 226°
2026-05-07 04:50 34.69186 -116.57641 25791 ft 457 kts 225°
2026-05-07 04:50 34.66902 -116.60310 25144 ft 453 kts 221°
2026-05-07 04:50 34.64559 -116.62826 24576 ft 447 kts 220°
2026-05-07 04:51 34.62210 -116.65287 23953 ft 443 kts 220°
2026-05-07 04:51 34.59892 -116.67727 23298 ft 439 kts 220°
2026-05-07 04:51 34.57609 -116.70161 22622 ft 434 kts 221°
2026-05-07 04:51 34.55364 -116.72578 22017 ft 428 kts 221°
2026-05-07 04:52 34.53158 -116.74962 21403 ft 422 kts 221°
2026-05-07 04:52 34.50978 -116.77315 20811 ft 417 kts 221°
2026-05-07 04:52 34.48826 -116.79636 20241 ft 411 kts 222°
2026-05-07 04:52 34.46700 -116.81925 19677 ft 406 kts 222°
2026-05-07 04:53 34.44597 -116.84187 19078 ft 402 kts 222°
2026-05-07 04:53 34.42531 -116.86408 18465 ft 400 kts 222°
2026-05-07 04:53 34.40435 -116.88660 17832 ft 396 kts 222°
2026-05-07 04:53 34.38414 -116.90832 17223 ft 391 kts 222°
2026-05-07 04:54 34.36389 -116.93007 16650 ft 386 kts 222°
2026-05-07 04:54 34.34390 -116.95153 16093 ft 382 kts 222°
2026-05-07 04:54 34.32408 -116.97278 15538 ft 379 kts 223°
2026-05-07 04:54 34.30443 -116.99384 14985 ft 376 kts 223°
2026-05-07 04:55 34.28496 -117.01469 14445 ft 372 kts 223°
2026-05-07 04:55 34.26544 -117.03514 13960 ft 369 kts 218°
2026-05-07 04:55 34.24429 -117.05187 13731 ft 358 kts 211°
2026-05-07 04:55 34.22274 -117.06656 13483 ft 353 kts 210°
2026-05-07 04:56 34.20144 -117.08119 13241 ft 352 kts 211°
2026-05-07 04:56 34.18036 -117.09613 13045 ft 352 kts 211°
2026-05-07 04:56 34.15877 -117.11010 12870 ft 352 kts 206°
2026-05-07 04:56 34.13635 -117.12233 12806 ft 355 kts 204°
2026-05-07 04:57 34.11356 -117.13417 12683 ft 357 kts 203°
2026-05-07 04:57 34.09081 -117.14596 12542 ft 355 kts 203°
2026-05-07 04:57 34.06826 -117.15781 12404 ft 352 kts 204°
2026-05-07 04:57 34.04594 -117.16969 12291 ft 350 kts 204°
2026-05-07 04:58 34.02384 -117.18151 12143 ft 341 kts 204°
2026-05-07 04:58 34.00275 -117.19325 12016 ft 328 kts 210°
2026-05-07 04:58 33.98553 -117.21049 11716 ft 319 kts 230°
2026-05-07 04:58 33.97132 -117.23060 11402 ft 312 kts 231°
2026-05-07 04:59 33.95737 -117.25053 11095 ft 310 kts 230°
2026-05-07 04:59 33.94335 -117.27035 10786 ft 312 kts 230°
2026-05-07 04:59 33.92924 -117.29020 10487 ft 313 kts 230°
2026-05-07 04:59 33.91514 -117.31016 10183 ft 311 kts 230°
2026-05-07 05:00 33.90119 -117.32995 9849 ft 308 kts 230°
2026-05-07 05:00 33.88739 -117.34947 9508 ft 304 kts 230°
2026-05-07 05:00 33.87385 -117.36863 9181 ft 299 kts 230°
2026-05-07 05:00 33.86049 -117.38753 8907 ft 294 kts 230°
2026-05-07 05:01 33.84751 -117.40584 8616 ft 289 kts 230°
2026-05-07 05:01 33.83457 -117.42409 8326 ft 285 kts 230°
2026-05-07 05:01 33.82185 -117.44212 8094 ft 280 kts 232°
2026-05-07 05:01 33.81272 -117.46217 8022 ft 267 kts 250°
2026-05-07 05:02 33.80645 -117.48263 8007 ft 255 kts 251°
2026-05-07 05:02 33.80047 -117.50207 7989 ft 241 kts 251°
2026-05-07 05:02 33.79677 -117.52123 7998 ft 227 kts 275°
2026-05-07 05:02 33.79976 -117.53941 7724 ft 224 kts 292°
2026-05-07 05:03 33.80572 -117.55679 7428 ft 220 kts 295°
2026-05-07 05:03 33.81166 -117.57327 7144 ft 216 kts 295°
2026-05-07 05:03 33.81565 -117.58446 6957 ft 213 kts 294°
2026-05-07 05:03 33.81575 -117.58473 6952 ft 213 kts 294°
2026-05-07 05:04 33.82162 -117.60140 6668 ft 211 kts 294°
2026-05-07 05:04 33.82726 -117.61755 6378 ft 207 kts 294°
2026-05-07 05:04 33.83065 -117.63415 6087 ft 206 kts 273°
2026-05-07 05:04 33.83142 -117.65137 5758 ft 205 kts 275°
2026-05-07 05:05 33.83252 -117.66848 5448 ft 205 kts 275°
2026-05-07 05:05 33.83328 -117.68560 5145 ft 205 kts 271°
2026-05-07 05:05 33.83329 -117.70282 4817 ft 205 kts 270°
2026-05-07 05:05 33.83316 -117.71991 4489 ft 204 kts 270°
2026-05-07 05:06 33.83310 -117.73682 4160 ft 201 kts 270°
2026-05-07 05:06 33.83301 -117.75360 3876 ft 199 kts 266°
2026-05-07 05:06 33.82847 -117.76901 3552 ft 199 kts 230°
2026-05-07 05:06 33.81770 -117.77908 3281 ft 195 kts 210°
2026-05-07 05:07 33.80590 -117.78669 2988 ft 191 kts 208°
2026-05-07 05:07 33.79415 -117.79402 2687 ft 189 kts 208°
2026-05-07 05:07 33.78263 -117.80122 2379 ft 183 kts 207°
2026-05-07 05:07 33.77177 -117.80802 2113 ft 170 kts 208°
2026-05-07 05:08 33.76269 -117.81374 1862 ft 160 kts 208°
2026-05-07 05:08 33.75325 -117.81970 1668 ft 146 kts 208°
2026-05-07 05:08 33.74465 -117.82514 1441 ft 133 kts 208°
2026-05-07 05:08 33.73667 -117.83017 1236 ft 126 kts 208°
2026-05-07 05:09 33.72892 -117.83509 1127 ft 127 kts 209°
2026-05-07 05:09 33.72091 -117.84016 944 ft 132 kts 208°
2026-05-07 05:09 33.71288 -117.84525 757 ft 130 kts 209°
2026-05-07 05:09 33.70492 -117.85029 588 ft 128 kts 208°
2026-05-07 05:10 33.69720 -117.85520 431 ft 124 kts 209°
2026-05-07 05:10 33.68946 -117.86013 295 ft 129 kts 207°
2026-05-07 05:10 33.68161 -117.86502 101 ft 123 kts 208°
2026-05-07 05:10 33.67472 -117.86940 52 ft 89 kts 208°
2026-05-07 05:11 33.67118 -117.87171 55 ft 35 kts 207°
2026-05-07 05:11 33.66993 -117.87229 56 ft 13 kts 162°
2026-05-07 05:11 33.66922 -117.87171 58 ft 12 kts 131°
2026-05-07 05:11 33.66917 -117.87086 56 ft 10 kts 48°
2026-05-07 05:12 33.66972 -117.87031 56 ft 10 kts 37°
2026-05-07 05:12 33.67027 -117.86980 54 ft 10 kts 38°
2026-05-07 05:12 33.67083 -117.86934 53 ft 10 kts 45°
2026-05-07 05:12 33.67129 -117.86877 55 ft 9 kts 49°
2026-05-07 05:13 33.67182 -117.86834 52 ft 9 kts 27°
2026-05-07 05:13 33.67238 -117.86799 52 ft 9 kts 27°
2026-05-07 05:13 33.67288 -117.86758 54 ft 9 kts 51°
2026-05-07 05:13 33.67338 -117.86695 55 ft 11 kts 30°
2026-05-07 05:14 33.67402 -117.86654 50 ft 11 kts 27°
2026-05-07 05:14 33.67468 -117.86613 54 ft 10 kts 28°
2026-05-07 05:14 33.67513 -117.86576 51 ft 7 kts 58°
2026-05-07 05:14 33.67508 -117.86526 54 ft 4 kts 114°
2026-05-07 05:15 33.67500 -117.86506 52 ft 0 kts 117°
2026-05-07 05:15 33.67499 -117.86504 52 ft 0 kts 117°
2026-05-07 05:15 33.67499 -117.86505 52 ft 0 kts 117°